FW5860 Weather Reports


time (UTC)temp
F
wind
direction
speed
knots
gust
knots
rain 1hr
in
rain 24hr
in
rain mn
in
humidity
%
barometer
mb
20260906060032 66 153 0.0 0.0 0.00 0.00 0.00 1 1012.5
20260906054527 67 153 0.0 0.0 0.00 0.00 0.00 1 1012.6
20260906053123 67 153 0.0 0.0 0.00 0.00 0.00 1 1012.9
20260906051536 67 153 0.0 0.0 0.00 0.00 0.00 1 1013.1
20260906050014 68 153 0.0 0.0 0.00 0.00 0.00 1 1013.0
20260906044510 67 155 0.0 0.0 0.00 0.00 0.00 1 1012.9
20260906043107 67 153 0.0 0.0 0.00 0.00 0.00 1 1013.0
20260906041502 67 154 0.0 0.0 0.00 0.00 0.00 1 1013.0
20260906040058 67 154 0.0 0.0 0.00 0.00 0.00 1 1013.1
20260906034613 67 153 0.0 0.0 0.00 0.00 0.00 1 1013.2
20260906033049 67 153 0.0 0.0 0.00 0.00 0.00 1 1013.5
20260906031550 67 153 0.0 0.0 0.00 0.00 0.00 1 1013.6
20260906030043 67 153 0.0 0.0 0.00 0.00 0.00 1 1013.6
20260906024537 67 153 0.0 0.0 0.00 0.00 0.00 1 1013.4
20260906023034 68 154 0.0 0.0 0.00 0.00 0.00 1 1013.1
20260906021530 68 153 0.0 0.0 0.00 0.00 0.00 1 1013.1
20260906020029 68 153 0.0 0.0 0.00 0.00 0.00 1 1013.0
20260906014529 68 154 0.0 0.0 0.00 0.00 0.00 1 1012.8
20260906013042 68 154 0.0 0.0 0.00 0.00 0.00 1 1012.8
20260906011532 69 153 0.0 0.0 0.00 0.00 0.00 1 1012.8
20260906010029 69 153 0.0 0.0 0.00 0.00 0.00 1 1012.6
20260906004521 69 153 0.0 0.0 0.00 0.00 0.00 1 1012.4
20260906003018 70 153 0.0 0.0 0.00 0.00 0.00 1 1012.3
20260906001510 70 153 0.0 0.0 0.00 0.00 0.00 1 1012.3
20260906000006 71 153 0.0 0.0 0.00 0.00 0.00 1 1012.1
20260905234503 71 154 0.0 0.0 0.00 0.00 0.00 1 1011.9
20260905233058 71 153 0.0 0.0 0.00 0.00 0.00 1 1011.9
20260905231555 72 153 0.0 0.0 0.00 0.00 0.00 1 1011.7
20260905230054 73 155 0.0 0.9 0.00 0.00 0.00 1 1011.8
20260905224545 73 121 0.0 0.0 0.00 0.00 0.00 1 1011.8
20260905223047 73 36 0.0 0.0 0.00 0.00 0.00 1 1011.9
20260905221540 73 36 0.0 0.0 0.00 0.00 0.00 1 1011.7
20260905220038 73 36 0.0 0.0 0.00 0.00 0.00 1 1011.6
20260905214532 73 35 0.0 0.9 0.00 0.00 0.00 1 1011.7
20260905213027 72 41 0.0 0.0 0.00 0.00 0.00 1 1012.0
20260905211521 72 41 0.0 0.0 0.00 0.00 0.00 1 1012.4
20260905210031 71 41 0.0 0.0 0.00 0.00 0.00 1 1012.3
20260905204513 71 41 0.0 0.0 0.00 0.00 0.00 1 1012.3
20260905203008 70 41 0.0 1.7 0.00 0.00 0.00 1 1012.1
20260905201506 70 49 0.0 0.0 0.00 0.00 0.00 1 1012.5
20260905200000 71 27 0.0 0.0 0.00 0.00 0.00 1 1012.2
20260905194557 70 25 0.0 0.0 0.00 0.00 0.00 1 1012.4
20260905193052 70 25 0.0 0.0 0.00 0.00 0.00 1 1012.5
20260905191549 69 25 0.0 0.0 0.00 0.00 0.00 1 1012.6
20260905190047 69 24 0.0 0.0 0.00 0.00 0.00 1 1013.2
20260905184545 68 4 0.0 0.0 0.00 0.00 0.00 1 1012.8
20260905183037 67 4 0.0 0.0 0.00 0.00 0.00 1 1012.6
20260905181533 66 359 0.0 0.9 0.00 0.00 0.00 1 1012.6
20260905180028 67 283 0.0 10.4 0.00 0.00 0.00 19 1013.2
20260905174524 75 354 7.8 19.1 0.00 0.00 0.00 41 1013.3
20260905173019 78 318 0.0 0.0 0.00 0.00 0.00 54 1012.0
20260905171527 84 318 0.0 0.0 0.00 0.00 0.00 63 1012.1
20260905170015 88 46 0.0 0.9 0.00 0.00 0.00 57 1012.0
20260905164509 86 70 0.0 2.6 0.00 0.00 0.00 57 1012.2
20260905163005 87 44 0.0 1.7 0.00 0.00 0.00 60 1012.6
20260905161501 86 141 0.0 0.9 0.00 0.00 0.00 63 1012.6
20260905160107 85 84 0.0 1.7 0.00 0.00 0.00 63 1012.7
20260905154615 85 315 0.0 0.9 0.00 0.00 0.00 65 1012.7
20260905153047 85 248 0.0 0.9 0.00 0.00 0.00 64 1012.7
20260905151545 84 27 0.0 2.6 0.00 0.00 0.00 65 1012.9
20260905150045 84 13 0.0 0.9 0.00 0.00 0.00 66 1013.1
20260905144538 84 325 0.0 2.6 0.00 0.00 0.00 67 1013.0
20260905143031 82 50 0.0 3.5 0.00 0.00 0.00 67 1013.2
20260905141527 83 20 0.0 0.9 0.00 0.00 0.00 67 1013.4
20260905140023 82 20 0.0 0.9 0.00 0.00 0.00 66 1013.5
20260905134522 82 323 0.0 0.9 0.00 0.00 0.00 65 1013.7
20260905133015 81 40 0.0 0.0 0.00 0.00 0.00 66 1013.9
20260905131529 81 149 0.0 0.0 0.00 0.00 0.00 65 1014.1
20260905130010 78 149 0.0 0.0 0.00 0.00 0.00 45 1014.3
20260905124506 75 149 0.0 0.0 0.00 0.00 0.00 1 1014.3
20260905123001 70 149 0.0 0.0 0.00 0.00 0.00 1 1014.1
20260905121555 68 149 0.0 0.0 0.00 0.00 0.00 1 1014.0
20260905120054 67 149 0.0 0.0 0.00 0.00 0.00 1 1013.8
20260905114559 67 148 0.0 0.0 0.00 0.00 0.00 1 1013.5
20260905113042 0 0.0 0.0 0.00 0.00 0.00 1013.3
20260905111603 0 0.0 0.0 0.00 0.00 0.00 1013.1
20260905110042 0 0.0 0.0 0.00 0.00 0.00 1012.9
20260905104543 0 0.0 0.0 0.00 0.00 0.00 1012.7
20260905103029 0 0.0 0.0 0.00 0.00 0.00 1012.7
20260905101531 0 0.0 0.0 0.00 0.00 0.00 1012.7
20260905100024 0 0.0 0.0 0.00 0.00 0.00 1012.6
20260905094530 0 0.0 0.0 0.00 0.00 0.00 1012.6
20260905093016 0 0.0 0.0 0.00 0.00 0.00 1012.7
20260905091511 0 0.0 0.0 0.00 0.00 0.00 1012.7
20260905090009 0 0.0 0.0 0.00 0.00 0.00 1012.8
20260905084502 0 0.0 0.0 0.00 0.00 0.00 1013.0
20260905083059 0 0.0 0.0 0.00 0.00 0.00 1013.5
20260905081557 0 0.0 0.0 0.00 0.00 0.00 1013.6
20260905080106 67 150 0.0 0.0 0.00 0.00 0.00 1 1013.7
20260905074558 67 149 0.0 0.0 0.00 0.00 0.00 1 1013.8
20260905073044 67 149 0.0 0.0 0.00 0.00 0.00 1 1013.9
20260905071547 67 149 0.0 0.0 0.00 0.00 0.00 1 1014.0
20260905070037 67 149 0.0 0.0 0.00 0.00 0.00 1 1014.1
20260905064533 67 149 0.0 0.0 0.00 0.00 0.00 1 1014.2
20260905063028 68 149 0.0 0.0 0.00 0.00 0.00 1 1014.4
20260905061530 68 149 0.0 0.0 0.00 0.00 0.00 1 1014.3